Weather reports worldwide

Advertisment
St-Auban-Sur-Durance, France (7588): temperature & dewpoint: 10.08.2018 13:00:00 - 16.08.2018 13:00:00 (CEST)St-Auban-Sur-Durance, France (7588): temperature 5cm: 10.08.2018 13:00:00 - 16.08.2018 13:00:00 (CEST)St-Auban-Sur-Durance, France (7588): temperature -20cm: 10.08.2018 13:00:00 - 16.08.2018 13:00:00 (CEST)St-Auban-Sur-Durance, France (7588): wind speed & gusts: 10.08.2018 13:00:00 - 16.08.2018 13:00:00 (CEST)St-Auban-Sur-Durance, France (7588): wind direction: 10.08.2018 13:00:00 - 16.08.2018 13:00:00 (CEST)St-Auban-Sur-Durance, France (7588): reduced air pressure: 10.08.2018 13:00:00 - 16.08.2018 13:00:00 (CEST)St-Auban-Sur-Durance, France (7588): visibility: 10.08.2018 13:00:00 - 16.08.2018 13:00:00 (CEST)St-Auban-Sur-Durance, France (7588): sunshine duration: 10.08.2018 13:00:00 - 16.08.2018 13:00:00 (CEST)St-Auban-Sur-Durance, France (7588): precipitation: 10.08.2018 13:00:00 - 16.08.2018 13:00:00 (CEST)
Date & Time tt [°C] td [°C] tt 5cm [°C] tt -20cm [°C] ff [km/h] ff [kn] fx [km/h] fx [kn] dd ppp [hPa] vv [km] sd [min] rr [mm]
16.08.2018 13:00:00 27,8 14,8 31,5 23,9 14 8 23 12 WSW 1014,9 20 37 0,0
16.08.2018 12:00:00 26,1 16,4 30,4 23,8 5 3 11 6 ENE 1015,6 20 45 0,0
16.08.2018 11:00:00 23,2 16,3 24,7 23,8 4 2 13 7 E 1016,4 20 27 0,0
16.08.2018 10:00:00 20,6 16,0 24,2 23,9 6 3 16 8 ENE 1016,9 20 17 0,0
16.08.2018 09:00:00 19,7 15,8 19,9 24,0 7 4 16 8 ENE 1017,1 20 50 0,0
16.08.2018 08:00:00 17,7 15,3 17,1 24,1 4 2 9 5 NE 1017,5 20 37 0,0
16.08.2018 07:00:00 16,6 15,1 16,5 24,3 5 3 8 5 NE 1017,6 20 0 0,0
16.08.2018 06:00:00 16,3 15,0 16,5 24,4 6 4 10 5 NE 1017,3 20 0 0,0
16.08.2018 05:00:00 16,9 15,1 16,9 24,6 5 3 11 6 NE 1017,2 20 0 0,0
16.08.2018 04:00:00 17,5 15,5 17,7 24,7 8 5 11 6 NNE 1017,2 20 0 0,0
16.08.2018 03:00:00 18,2 15,6 17,8 24,9 6 4 11 6 NE 1017,3 20 0 0,0
16.08.2018 02:00:00 18,1 14,8 17,4 25,0 4 2 13 7 NNE 1017,4 20 0 0,0
16.08.2018 01:00:00 17,9 14,8 17,2 25,2 3 2 6 3 E 1017,5 20 0 0,0
16.08.2018 00:00:00 18,8 14,7 18,1 25,3 0 0 8 4 N 1017,2 20 0 0,0
15.08.2018 23:00:00 19,6 14,6 18,5 25,4 4 2 7 4 WNW 1016,7 20 0 0,0
15.08.2018 22:00:00 21,7 14,3 19,7 25,5 4 2 17 9 WSW 1015,9 20 0 0,0
15.08.2018 21:00:00 24,2 14,0 23,3 25,5 18 10 30 16 SW 1014,6 20 0 0,0
15.08.2018 20:00:00 25,8 14,3 25,6 25,4 17 9 32 17 SSW 1013,9 20 24 0,0
15.08.2018 19:00:00 27,5 14,5 28,6 25,3 22 12 36 20 SSW 1013,4 20 54 0,0
15.08.2018 18:00:00 27,7 13,6 28,2 25,1 20 11 34 19 SSW 1013,5 20 17 0,0
15.08.2018 17:00:00 29,7 13,9 34,3 24,7 17 9 34 18 SW 1013,3 20 57 0,0
15.08.2018 16:00:00 29,1 14,5 37,1 24,3 15 8 24 13 SSW 1013,6 20 60 0,0
15.08.2018 15:00:00 28,8 14,6 37,2 24,0 8 4 18 10 WSW 1014,1 20 60 0,0
15.08.2018 14:00:00 27,6 13,9 34,6 23,6 6 3 18 10 ESE 1014,7 19 60 0,0
15.08.2018 13:00:00 26,4 13,2 31,1 23,4 12 7 24 13 NNE 1015,0 20 60 0,0
15.08.2018 12:00:00 24,7 12,9 28,8 23,4 16 9 32 17 NE 1015,5 20 60 0,0
15.08.2018 11:00:00 23,5 13,7 26,7 23,4 21 11 37 20 NNE 1015,9 20 60 0,0
15.08.2018 10:00:00 21,7 13,3 24,8 23,5 18 10 33 18 NNE 1016,0 20 60 0,0
15.08.2018 09:00:00 19,8 12,8 21,9 23,7 14 8 31 17 NE 1016,3 20 60 0,0
15.08.2018 08:00:00 18,6 12,6 17,3 23,9 13 7 28 15 NE 1016,3 20 47 0,0
15.08.2018 07:00:00 17,4 12,3 16,9 24,0 10 6 25 14 ENE 1016,3 20 0 0,0
15.08.2018 06:00:00 17,4 12,3 17,3 24,2 10 5 29 16 NE 1015,9 20 0 0,0
15.08.2018 05:00:00 18,5 12,3 18,0 24,4 13 7 32 17 NE 1015,6 20 0 0,0
15.08.2018 04:00:00 18,9 12,4 18,7 24,6 11 6 33 18 NE 1015,2 20 0 0,0
15.08.2018 03:00:00 19,6 12,4 19,5 24,8 18 10 37 20 NNE 1014,4 20 0 0,0
15.08.2018 02:00:00 19,7 12,2 19,7 24,9 21 12 50 27 NNE 1014,5 20 0 0,0
15.08.2018 01:00:00 20,6 12,0 20,6 25,1 29 16 51 28 N 1014,1 20 0 0,0
15.08.2018 00:00:00 21,0 11,9 20,8 25,3 21 11 40 22 N 1013,6 20 0 0,0
14.08.2018 23:00:00 21,7 11,7 21,5 25,4 22 12 39 21 NNE 1013,3 20 0 0,0
14.08.2018 22:00:00 22,3 11,7 22,1 25,5 19 10 33 18 NNE 1013,2 20 0 0,0
14.08.2018 21:00:00 23,3 11,7 23,3 25,5 20 11 39 21 N 1012,6 20 0 0,0
14.08.2018 20:00:00 24,7 12,0 24,8 25,5 21 11 40 22 NNE 1011,5 20 40 0,0
14.08.2018 19:00:00 25,9 12,0 29,9 25,3 23 12 48 26 N 1010,4 20 60 0,0
14.08.2018 18:00:00 26,6 12,3 31,2 25,0 26 14 44 24 N 1009,4 20 60 0,0
14.08.2018 17:00:00 26,9 12,9 32,5 24,7 25 13 43 23 N 1009,3 20 60 0,0
14.08.2018 16:00:00 26,9 12,9 33,0 24,3 25 14 42 23 N 1009,4 20 60 0,0
14.08.2018 15:00:00 26,3 13,1 32,0 24,0 27 15 44 24 N 1009,9 20 60 0,0
14.08.2018 14:00:00 25,7 13,9 30,8 23,7 27 15 42 23 N 1010,5 20 60 0,0
14.08.2018 13:00:00 24,8 13,7 30,0 23,5 26 14 45 24 N 1011,1 20 60 0,0
14.08.2018 12:00:00 23,8 14,2 27,5 23,4 24 13 42 23 N 1011,6 20 57 0,0
14.08.2018 11:00:00 22,5 15,1 27,5 23,4 17 9 35 19 N 1012,2 20 60 0,0
14.08.2018 10:00:00 21,2 14,4 24,0 23,5 22 12 40 22 N 1012,5 20 60 0,0
14.08.2018 09:00:00 19,2 14,2 21,0 23,6 27 15 40 21 N 1013,1 20 60 0,0
14.08.2018 08:00:00 17,9 14,0 17,1 23,8 17 9 36 19 N 1013,1 20 46 0,0
14.08.2018 07:00:00 16,7 14,0 16,3 24,0 16 8 31 17 NNW 1013,3 20 0 0,0
14.08.2018 06:00:00 16,5 14,1 16,8 24,1 13 7 28 15 NNE 1013,1 20 0 0,0
14.08.2018 05:00:00 16,9 14,4 16,0 24,3 14 8 27 15 NNE 1012,8 20 0 0,0
14.08.2018 04:00:00 16,6 14,4 16,3 24,5 3 1 12 7 S 1013,3 20 0 0,0
14.08.2018 03:00:00 16,9 14,7 16,2 24,6 5 3 14 8 NE 1013,5 19 0 0,0
14.08.2018 02:00:00 17,7 14,8 17,2 24,7 5 3 19 11 E 1013,4 20 0 0,0
14.08.2018 01:00:00 18,3 14,6 18,4 24,9 12 7 28 15 NNE 1013,6 20 0 0,0
14.08.2018 00:00:00 19,2 14,9 19,5 25,0 15 8 24 13 N 1013,5 20 0 0,0
13.08.2018 23:00:00 20,1 15,7 20,3 25,0 8 5 21 11 NE 1013,0 20 0 0,0
13.08.2018 22:00:00 21,0 16,0 21,3 25,1 8 5 31 17 NNE 1012,6 20 0 0,0
13.08.2018 21:00:00 22,4 15,7 22,7 25,1 13 7 26 14 N 1012,3 20 0 0,0
13.08.2018 20:00:00 23,5 17,5 24,0 25,0 8 4 20 11 W 1011,0 20 0 0,0
13.08.2018 19:00:00 25,5 16,9 26,7 24,9 13 7 19 10 SW 1010,4 20 45 0,0
13.08.2018 18:00:00 26,6 17,1 29,4 24,7 10 6 21 12 SSW 1010,6 20 49 0,0
13.08.2018 17:00:00 26,7 14,8 31,0 24,4 15 8 26 14 SSW 1010,8 20 42 0,0
13.08.2018 16:00:00 26,8 14,9 33,9 24,0 15 8 23 12 SSW 1011,3 20 53 0,0
13.08.2018 15:00:00 26,2 15,6 34,5 23,7 9 5 16 8 N 1012,1 19 60 0,0
13.08.2018 14:00:00 24,9 16,1 28,0 23,5 9 5 21 12 NE 1013,0 20 41 0,0
13.08.2018 13:00:00 23,7 17,2 29,0 23,3 11 6 27 14 NE 1013,5 20 60 0,0
13.08.2018 12:00:00 21,7 17,9 23,3 23,3 13 7 28 15 NE 1014,0 20 54 0,0
13.08.2018 11:00:00 19,2 17,3 18,8 23,5 11 6 22 12 NE 1014,7 20 1 0,0
13.08.2018 10:00:00 17,8 16,8 17,7 23,6 5 3 28 15 W 1015,1 20 0 2,2
13.08.2018 09:00:00 17,3 16,7 17,9 23,9 18 10 32 18 E 1015,4 10 0 5,9
13.08.2018 08:00:00 17,4 16,9 17,8 24,1 7 4 31 17 ENE 1015,9 4,5 0 13,8
13.08.2018 07:00:00 17,7 16,2 17,9 24,3 8 4 19 10 NW 1014,6 16 0 0,2
13.08.2018 06:00:00 17,6 15,4 17,8 24,5 5 3 23 12 NNE 1013,7 20 0 0,0
13.08.2018 05:00:00 18,2 14,7 17,9 24,7 12 6 21 12 ESE 1013,3 20 0 0,0
13.08.2018 04:00:00 18,1 15,4 17,9 24,8 8 5 16 9 E 1014,9 20 0 0,0
13.08.2018 03:00:00 17,8 15,6 17,5 24,9 2 1 8 4 NE 1015,6 20 0 0,0
13.08.2018 02:00:00 18,7 15,2 17,9 25,1 0 0 17 9 N 1015,5 20 0 0,0
13.08.2018 01:00:00 19,0 15,7 18,2 25,2 4 2 14 7 ESE 1015,9 20 0 0,0
13.08.2018 00:00:00 20,0 15,4 18,3 25,3 7 4 16 9 SSE 1015,9 20 0 0,0
12.08.2018 23:00:00 21,4 14,8 19,6 25,4 2 1 20 11 SSW 1016,1 20 0 0,0
12.08.2018 22:00:00 22,6 14,7 21,7 25,5 11 6 18 10 SSW 1015,9 20 0 0,0
12.08.2018 21:00:00 23,8 15,8 22,4 25,5 10 6 19 10 WSW 1013,6 20 0 0,0
12.08.2018 20:00:00 26,9 15,3 26,4 25,4 11 6 19 10 SW 1013,0 20 32 0,0
12.08.2018 19:00:00 28,1 14,7 28,6 25,1 9 5 20 11 SW 1013,1 20 35 0,0
12.08.2018 18:00:00 29,6 12,9 36,5 24,8 8 5 22 12 SSW 1013,3 20 60 0,0
12.08.2018 17:00:00 29,8 13,1 36,9 24,5 15 8 21 12 SSW 1013,9 20 60 0,0
12.08.2018 16:00:00 29,5 12,9 38,1 24,1 8 4 22 12 SSE 1014,6 20 60 0,0
12.08.2018 15:00:00 29,3 12,3 37,4 23,7 10 5 22 12 SSW 1015,1 18 60 0,0
12.08.2018 14:00:00 28,6 9,3 35,4 23,4 14 8 21 11 SW 1015,8 20 60 0,0
12.08.2018 13:00:00 26,8 14,5 36,6 23,2 11 6 19 10 SW 1016,6 20 60 0,0
12.08.2018 12:00:00 26,1 14,9 33,1 23,1 5 3 13 7 ENE 1017,1 20 60 0,0
12.08.2018 11:00:00 23,1 13,3 28,7 23,1 8 4 18 10 NNE 1017,9 20 60 0,0
12.08.2018 10:00:00 21,2 13,4 25,6 23,2 8 5 17 9 NE 1018,4 20 60 0,0
12.08.2018 09:00:00 18,6 12,8 21,9 23,4 7 4 16 9 ENE 1018,8 20 60 0,0
12.08.2018 08:00:00 16,0 12,9 13,6 23,6 6 3 14 7 ENE 1019,4 20 45 0,0
12.08.2018 07:00:00 14,1 12,0 13,1 23,8 4 2 13 7 ENE 1019,6 20 0 0,0
12.08.2018 06:00:00 14,9 12,0 13,9 23,9 3 1 12 7 E 1018,9 20 0 0,0
12.08.2018 05:00:00 14,9 12,4 14,0 24,1 5 3 11 6 E 1018,8 20 0 0,0
12.08.2018 04:00:00 15,7 12,4 14,5 24,3 5 3 9 5 E 1018,9 20 0 0,0
12.08.2018 03:00:00 16,8 11,5 15,3 24,4 2 1 11 6 SSW 1018,6 20 0 0,0
12.08.2018 02:00:00 19,1 11,9 17,9 24,6 5 3 16 9 ESE 1018,1 20 0 0,0
12.08.2018 01:00:00 19,2 12,2 18,0 24,7 7 4 18 10 E 1018,2 20 0 0,0
12.08.2018 00:00:00 19,6 12,6 17,4 24,8 5 3 16 9 E 1018,3 20 0 0,0
11.08.2018 23:00:00 22,1 12,6 21,1 24,9 6 4 17 9 E 1017,7 20 0 0,0
11.08.2018 22:00:00 23,1 12,4 21,5 24,9 10 5 22 12 NNE 1017,1 20 0 0,0
11.08.2018 21:00:00 23,2 13,9 21,3 24,9 8 5 15 8 NNE 1016,6 20 0 0,0
11.08.2018 20:00:00 26,6 15,6 25,7 24,9 7 4 19 10 NW 1015,7 20 51 0,0
11.08.2018 19:00:00 28,0 14,6 33,5 24,7 15 8 21 11 SW 1015,3 20 60 0,0
11.08.2018 18:00:00 28,9 14,7 35,4 24,3 14 7 28 15 SSW 1015,4 20 60 0,0
11.08.2018 17:00:00 28,9 15,8 33,7 24,0 20 11 28 15 SSW 1015,7 20 55 0,0
11.08.2018 16:00:00 28,7 14,9 36,5 23,6 16 9 24 13 SSW 1016,3 20 60 0,0
11.08.2018 15:00:00 28,4 14,6 35,2 23,1 11 6 22 12 SW 1016,9 20 60 0,0
11.08.2018 14:00:00 27,7 12,9 33,5 22,8 4 2 24 13 ENE 1017,5 20 60 0,0
11.08.2018 13:00:00 26,4 10,5 31,3 22,6 14 7 35 19 N 1018,2 20 60 0,0
11.08.2018 12:00:00 24,7 11,3 28,2 22,5 18 10 38 21 N 1018,9 20 60 0,0
11.08.2018 11:00:00 22,7 12,9 25,8 22,6 18 10 34 19 NNE 1019,5 20 60 0,0
11.08.2018 10:00:00 20,7 12,9 22,8 22,7 17 9 35 19 NE 1020,0 20 60 0,0
11.08.2018 09:00:00 18,4 12,4 19,8 22,8 18 10 33 18 NNE 1020,7 20 60 0,0
11.08.2018 08:00:00 16,9 12,0 15,6 23,0 17 9 29 16 NE 1021,2 20 48 0,0
11.08.2018 07:00:00 15,3 11,5 15,4 23,2 14 8 24 13 NNE 1021,4 20 0 0,0
11.08.2018 06:00:00 15,6 11,8 15,4 23,4 14 8 29 16 NNE 1021,3 20 0 0,0
11.08.2018 05:00:00 16,0 11,6 14,3 23,5 11 6 27 14 NNE 1021,5 20 0 0,0
11.08.2018 04:00:00 15,8 12,2 14,1 23,7 12 6 23 13 NE 1021,7 20 0 0,0
11.08.2018 03:00:00 15,2 12,3 13,1 23,9 7 4 12 6 ENE 1022,3 20 0 0,0
11.08.2018 02:00:00 14,1 12,0 13,2 24,1 4 2 8 4 SE 1023,0 20 0 0,0
11.08.2018 01:00:00 14,4 11,2 13,6 24,3 6 3 9 5 SE 1023,0 20 0 0,0
11.08.2018 00:00:00 15,2 11,2 14,3 24,4 0 0 9 5 N 1022,7 20 0 0,0
10.08.2018 23:00:00 16,4 11,1 15,6 24,5 5 3 14 7 NW 1022,0 20 0 0,0
10.08.2018 22:00:00 18,7 11,3 17,3 24,6 11 6 16 9 NNW 1021,3 20 0 0,0
10.08.2018 21:00:00 23,9 10,9 19,9 24,5 4 2 10 5 NNE 1019,7 20 0 0,0
10.08.2018 20:00:00 26,6 10,3 25,7 24,4 8 5 19 11 W 1018,6 20 53 0,0
10.08.2018 19:00:00 28,0 15,0 28,7 24,2 3 1 16 9 SE 1018,2 20 43 0,0
10.08.2018 18:00:00 26,7 16,3 28,4 24,0 14 8 23 13 SSW 1018,7 20 22 0,0
10.08.2018 17:00:00 28,5 14,7 31,7 23,6 8 4 29 16 S 1018,5 20 56 0,0
10.08.2018 16:00:00 28,2 14,4 32,8 23,3 10 5 28 15 NE 1018,8 18 60 0,0
10.08.2018 15:00:00 26,9 13,6 27,8 23,0 11 6 29 15 NE 1019,4 20 25 0,0
10.08.2018 14:00:00 25,5 12,3 28,4 22,7 19 10 33 18 N 1020,1 20 2 0,0
10.08.2018 13:00:00 25,5 13,7 30,7 22,4 18 10 37 20 N 1020,3 20 60 0,0

tt = temperature
td = dewpoint
tt 5cm = temperature 5cm
tt -20cm = temperature -20cm
ff = wind speed
fx = gusts
dd = wind direction
ppp = reduced air pressure
vv = visibility
sd = sunshine duration
rr = precipitation

Next stations